Weather History for Nucla Hopkins Field Airport, CO

Change the Weather History Date:

Tuesday, February 25, 2014

  Actual Average Record
Temperature  
Mean Temperature 45 °F -  
Max Temperature 60 °F - - ()
Min Temperature 30 °F - - ()
Degree Days  
Heating Degree Days 20    
Moisture  
Dew Point 17 °F    
Average Humidity 38    
Maximum Humidity 60    
Minimum Humidity 15    
Precipitation  
Precipitation 0.00 in - - ()
Sea Level Pressure  
Sea Level Pressure 30.08 in    
Wind  
Wind Speed 6 mph (SE)    
Max Wind Speed 16 mph    
Max Gust Speed 25 mph    
Visibility 10 miles    
Events      
T = Trace of Precipitation, MM = Missing Value Source: NWS Daily Summary

Daily Weather History Graph

Daily Weather History Graph

Search for Another Location

Airport:

Trip Planner

Search our weather history database for the weather conditions in past years. The results will help you decide how hot, cold, wet, or windy it might be!

Date:

Astronomy

Feb. 25, 2014 Rise Set
Actual Time 6:51 AM MST 6:03 PM MST
Civil Twilight 6:25 AM MST 6:30 PM MST
Nautical Twilight 5:54 AM MST 7:00 PM MST
Astronomical Twilight 5:23 AM MST 7:31 PM MST
Moon 3:46 AM MST (2/25) 2:14 PM MST (2/25)
Length of Visible Light 12h 05m
Length of Day
11h 11m
Waning Crescent, 17% of the Moon is Illuminated
Feb 25
Waning Crescent
Mar 1
New
Mar 8
First Quarter
Mar 16
Full
Mar 23
Last Quarter

Hourly Weather History & Observations

Time (MST) Temp. Windchill Dew Point Humidity Pressure Visibility Wind Dir Wind Speed Gust Speed Precip Events Conditions
12:15 AM 35.6 °F 29.2 °F 17.6 °F 48% 30.13 in 10.0 mi ESE 8.1 mph - N/A   Clear
12:35 AM 33.8 °F 27.0 °F 17.6 °F 52% 30.13 in 10.0 mi ESE 8.1 mph - N/A   Clear
12:55 AM 35.6 °F 29.9 °F 17.6 °F 48% 30.13 in 10.0 mi ESE 6.9 mph - N/A   Clear
1:15 AM 33.8 °F 27.7 °F 17.6 °F 52% 30.13 in 10.0 mi ESE 6.9 mph - N/A   Clear
1:35 AM 33.8 °F 28.6 °F 17.6 °F 52% 30.13 in 10.0 mi ESE 5.8 mph - N/A   Clear
1:55 AM 32.0 °F 25.6 °F 17.6 °F 55% 30.13 in 10.0 mi ESE 6.9 mph - N/A   Clear
2:15 AM 32.0 °F 25.6 °F 17.6 °F 55% 30.13 in 10.0 mi ESE 6.9 mph - N/A   Clear
2:35 AM 32.0 °F 25.6 °F 17.6 °F 55% 30.13 in 10.0 mi ESE 6.9 mph - N/A   Clear
2:55 AM 32.0 °F 26.4 °F 17.6 °F 55% 30.13 in 10.0 mi ESE 5.8 mph - N/A   Clear
3:15 AM 32.0 °F 25.6 °F 17.6 °F 55% 30.13 in 10.0 mi East 6.9 mph - N/A   Clear
3:35 AM 32.0 °F 24.2 °F 17.6 °F 55% 30.12 in 10.0 mi ESE 9.2 mph - N/A   Clear
3:55 AM 32.0 °F 25.6 °F 17.6 °F 55% 30.13 in 10.0 mi SE 6.9 mph - N/A   Clear
4:15 AM 32.0 °F 28.7 °F 17.6 °F 55% 30.13 in 10.0 mi ESE 3.5 mph - N/A   Clear
4:35 AM 32.0 °F 26.4 °F 17.6 °F 55% 30.12 in 10.0 mi ESE 5.8 mph - N/A   Clear
4:55 AM 32.0 °F 26.4 °F 17.6 °F 55% 30.13 in 10.0 mi ESE 5.8 mph - N/A   Clear
5:15 AM 32.0 °F 26.4 °F 17.6 °F 55% 30.13 in 10.0 mi East 5.8 mph - N/A   Clear
5:35 AM 32.0 °F 27.5 °F 17.6 °F 55% 30.13 in 10.0 mi ESE 4.6 mph - N/A   Clear
5:55 AM 32.0 °F 25.6 °F 17.6 °F 55% 30.13 in 10.0 mi ESE 6.9 mph - N/A   Clear
6:15 AM 32.0 °F 27.5 °F 17.6 °F 55% 30.13 in 10.0 mi East 4.6 mph - N/A   Clear
6:35 AM 30.2 °F 23.4 °F 17.6 °F 60% 30.13 in 10.0 mi East 6.9 mph - N/A   Clear
6:55 AM 30.2 °F 25.4 °F 17.6 °F 60% 30.13 in 10.0 mi ESE 4.6 mph - N/A   Clear
7:15 AM 30.2 °F 26.7 °F 17.6 °F 60% 30.13 in 10.0 mi East 3.5 mph - N/A   Clear
7:35 AM 32.0 °F 27.5 °F 19.4 °F 60% 30.13 in 10.0 mi ESE 4.6 mph - N/A   Clear
7:55 AM 33.8 °F 29.6 °F 17.6 °F 52% 30.14 in 10.0 mi East 4.6 mph - N/A   Clear
8:15 AM 37.4 °F 34.9 °F 15.8 °F 41% 30.14 in 10.0 mi East 3.5 mph - N/A   Clear
8:35 AM 37.4 °F 34.9 °F 17.6 °F 45% 30.14 in 10.0 mi South 3.5 mph - N/A   Clear
8:55 AM 37.4 °F - 21.2 °F 52% 30.14 in 10.0 mi Calm Calm - N/A   Clear
9:15 AM 37.4 °F - 19.4 °F 48% 30.14 in 10.0 mi Calm Calm - N/A   Clear
9:35 AM 41.0 °F - 19.4 °F 42% 30.13 in 10.0 mi Calm Calm - N/A   Clear
9:55 AM 42.8 °F - 19.4 °F 39% 30.13 in 10.0 mi Calm Calm - N/A   Clear
10:15 AM 44.6 °F - 19.4 °F 37% 30.12 in 10.0 mi Calm Calm - N/A   Clear
10:35 AM 48.2 °F - 19.4 °F 32% 30.11 in 10.0 mi Calm Calm - N/A   Clear
10:55 AM 50.0 °F - 21.2 °F 32% 30.11 in 10.0 mi Calm Calm - N/A   Clear
11:15 AM 51.8 °F - 17.6 °F 26% 30.11 in 10.0 mi Calm Calm - N/A   Clear
11:35 AM 51.8 °F - 17.6 °F 26% 30.10 in 10.0 mi Calm Calm - N/A   Clear
11:55 AM 53.6 °F - 17.6 °F 24% 30.09 in 10.0 mi Calm Calm - N/A   Clear
12:15 PM 55.4 °F - 17.6 °F 23% 30.07 in 10.0 mi Calm Calm - N/A   Clear
12:35 PM 55.4 °F - 17.6 °F 23% 30.06 in 10.0 mi Calm Calm - N/A   Clear
12:55 PM 59.0 °F - 15.8 °F 19% 30.05 in 10.0 mi West 6.9 mph - N/A   Clear
1:15 PM 59.0 °F - 15.8 °F 19% 30.04 in 10.0 mi North 5.8 mph - N/A   Clear
1:35 PM 60.8 °F - 12.2 °F 15% 30.03 in 10.0 mi WSW 9.2 mph 17.3 mph N/A   Clear
1:55 PM 60.8 °F - 12.2 °F 15% 30.01 in 10.0 mi West 13.8 mph 25.3 mph N/A   Clear
2:15 PM 60.8 °F - 12.2 °F 15% 30.01 in 10.0 mi West 10.4 mph 23.0 mph N/A   Clear
2:35 PM 60.8 °F - 12.2 °F 15% 30.01 in 10.0 mi WSW 10.4 mph 18.4 mph N/A   Clear
2:55 PM 60.8 °F - 12.2 °F 15% 30.00 in 10.0 mi West 5.8 mph - N/A   Clear
3:15 PM 60.8 °F - 12.2 °F 15% 30.00 in 10.0 mi West 10.4 mph 17.3 mph N/A   Clear
3:35 PM 60.8 °F - 12.2 °F 15% 30.00 in 10.0 mi WSW 9.2 mph - N/A   Clear
3:55 PM 60.8 °F - 12.2 °F 15% 30.00 in 10.0 mi West 12.7 mph - N/A   Clear
4:15 PM 60.8 °F - 12.2 °F 15% 30.00 in 10.0 mi WSW 16.1 mph 19.6 mph N/A   Clear
4:35 PM 60.8 °F - 12.2 °F 15% 30.00 in 10.0 mi WSW 12.7 mph 18.4 mph N/A   Clear
4:55 PM 60.8 °F - 12.2 °F 15% 30.00 in 10.0 mi West 10.4 mph - N/A   Clear
5:15 PM 59.0 °F - 10.4 °F 15% 30.00 in 10.0 mi WSW 12.7 mph - N/A   Clear
5:35 PM 57.2 °F - 14.0 °F 18% 30.01 in 10.0 mi WNW 6.9 mph - N/A   Clear
5:55 PM 53.6 °F - 15.8 °F 22% 30.01 in 10.0 mi WNW 6.9 mph - N/A   Clear
6:15 PM 51.8 °F - 15.8 °F 24% 30.01 in 10.0 mi WNW 6.9 mph - N/A   Clear
6:35 PM 50.0 °F - 14.0 °F 24% 30.02 in 10.0 mi WNW 4.6 mph - N/A   Clear
6:55 PM 50.0 °F - 14.0 °F 24% 30.02 in 10.0 mi West 5.8 mph - N/A   Clear
7:15 PM 51.8 °F - 14.0 °F 22% 30.02 in 10.0 mi West 4.6 mph - N/A   Clear
7:35 PM 51.8 °F - 14.0 °F 22% 30.02 in 10.0 mi Calm Calm - N/A   Clear
7:55 PM 50.0 °F - 14.0 °F 24% 30.02 in 10.0 mi Calm Calm - N/A   Clear
8:15 PM 48.2 °F - 14.0 °F 25% 30.03 in 10.0 mi Calm Calm - N/A   Clear
8:35 PM 41.0 °F 35.2 °F 17.6 °F 39% 30.03 in 10.0 mi East 9.2 mph - N/A   Clear
8:55 PM 41.0 °F 35.2 °F 17.6 °F 39% 30.03 in 10.0 mi East 9.2 mph - N/A   Clear
9:15 PM 41.0 °F 34.7 °F 19.4 °F 42% 30.03 in 10.0 mi ESE 10.4 mph - N/A   Clear
9:35 PM 41.0 °F 35.2 °F 19.4 °F 42% 30.04 in 10.0 mi East 9.2 mph - N/A   Clear
9:55 PM 39.2 °F 32.0 °F 19.4 °F 45% 30.04 in 10.0 mi East 11.5 mph - N/A   Clear
10:15 PM 39.2 °F 33.0 °F 19.4 °F 45% 30.04 in 10.0 mi East 9.2 mph - N/A   Clear
10:35 PM 39.2 °F 33.0 °F 19.4 °F 45% 30.04 in 10.0 mi East 9.2 mph - N/A   Clear
10:55 PM 37.4 °F 29.8 °F 19.4 °F 48% 30.04 in 10.0 mi East 11.5 mph - N/A   Clear
11:15 PM 37.4 °F 30.3 °F 19.4 °F 48% 30.05 in 10.0 mi East 10.4 mph - N/A   Clear
11:35 PM 35.6 °F 31.7 °F 21.2 °F 56% 30.05 in 10.0 mi ESE 4.6 mph - N/A   Clear
11:55 PM 37.4 °F 30.3 °F 19.4 °F 48% 30.05 in 10.0 mi East 10.4 mph - N/A   Clear